Overview Statistics Trail Chart Weather Telemetry Raw packets
 

This is the latest recevied weather packets stored in our database for station/object K5IDL. If no packets are shown the sender has not sent any weather packets the latest 10 day(s).

<< 111 112 113 114 >>
Time Temp. Humidity Pressure Rain* Wind** Luminosity Snow
1787863922 36.67° C 43% 1015.3 hPa 0 mm - 89 W/m² -
1787863620 36.67° C 43% 1015.7 hPa 0 mm - 64 W/m² -
1787863315 36.67° C 43% 1015.6 hPa 0 mm - 78 W/m² -
1787863010 36.67° C 43% 1015.5 hPa 0 mm - 68 W/m² -
1787862705 36.11° C 44% 1015.8 hPa 0 mm - 68 W/m² -
1787862400 36.11° C 43% 1015.7 hPa 0 mm - 74 W/m² -
1787862096 36.11° C 44% 1015.6 hPa 0 mm - 72 W/m² -
1787861796 36.11° C 43% 1015.9 hPa 0 mm - 65 W/m² -
1787861493 36.67° C 43% 1015.9 hPa 0 mm - 79 W/m² -
1787861189 36.67° C 42% 1016 hPa 0 mm - 95 W/m² -
1787860887 36.11° C 44% 1015.8 hPa 0 mm - 96 W/m² -
1787860582 36.11° C 44% 1016 hPa 0 mm - 286 W/m² -
1787860278 36.67° C 45% 1016 hPa 0 mm - 164 W/m² -
1787859973 36.11° C 45% 1016.2 hPa 0 mm - 101 W/m² -
1787859668 35.56° C 48% 1016.2 hPa 0 mm - 101 W/m² -
1787859367 36.67° C 45% 1016 hPa 0 mm - 98 W/m² -
1787859063 36.67° C 44% 1016.1 hPa 0 mm - 118 W/m² -
1787858759 36.11° C 44% 1015.9 hPa 0 mm - 128 W/m² -
1787858455 35.56° C 45% 1016.2 hPa 0 mm - 125 W/m² -
1787858154 35.56° C 46% 1016.3 hPa 0 mm - 193 W/m² -

* Rain latest hour (hover to see other rain measurements)
** Current wind speed in m/s (hover to see current wind gust speed)